Weather History for KMPV - February, 2013

Change the Weather History Date:

Saturday, February 2, 2013

  Actual Average Record
Temperature  
Mean Temperature 11 °F 17 °F  
Max Temperature 19 °F 28 °F 48 °F (1981)
Min Temperature 3 °F 7 °F -28 °F (1962)
Degree Days  
Heating Degree Days 54 48  
Month to date heating degree days 104 96  
Since 1 July heating degree days 4449 4741  
Cooling Degree Days 0 0  
Month to date cooling degree days 0  
Year to date cooling degree days 0  
Moisture  
Dew Point 8 °F    
Average Humidity 76    
Maximum Humidity 100    
Minimum Humidity 51    
Precipitation  
Precipitation 0.01 in 0.08 in 1.76 in (1981)
Month to date precipitation 0.01 0.16  
Year to date precipitation 0.96 2.61  
Sea Level Pressure  
Sea Level Pressure 30.08 in    
Wind  
Wind Speed 4 mph (SSW)    
Max Wind Speed 16 mph    
Max Gust Speed 22 mph    
Visibility 6 miles    
Events Snow    
T = Trace of Precipitation, MM = Missing Value Source: NWS Daily Summary

Daily Weather History Graph

Daily Weather History Graph

Search for Another Location

Airport or City:

Trip Planner

Search our weather history database for the weather conditions in past years. The results will help you decide how hot, cold, wet, or windy it might be!

Date:

Astronomy

Feb. 02, 2013 Rise Set
Actual Time 7:06 AM EST 5:01 PM EST
Civil Twilight 6:36 AM EST 5:32 PM EST
Nautical Twilight 6:01 AM EST 6:07 PM EST
Astronomical Twilight 5:27 AM EST 6:41 PM EST
Moon No Moon Rise 9:58 AM EST (2/2)
Length of Visible Light 10h 56m
Length of Day
9h 55m
Waning Gibbous, 60% of the Moon is Illuminated
Feb 2
Waning Gibbous
Feb 3
Last Quarter
Feb 10
New
Feb 17
First Quarter
Feb 25
Full

Hourly Weather History & Observations

Time (EST) Temp. Windchill Dew Point Humidity Pressure Visibility Wind Dir Wind Speed Gust Speed Precip Events Conditions
12:16 AM 8.6 °F -3.7 °F 3.2 °F 79% 30.06 in 9.0 mi NW 8.1 mph - 0.00 in   Overcast
12:51 AM 7.0 °F -1.7 °F 1.9 °F 80% 30.15 in 9.0 mi NW 4.6 mph - 0.00 in   Mostly Cloudy
1:51 AM 6.1 °F -2.8 °F 1.0 °F 80% 30.17 in 10.0 mi NW 4.6 mph - N/A   Clear
2:51 AM 6.8 °F -5.9 °F 1.4 °F 79% 30.10 in 10.0 mi NW 8.1 mph - N/A   Partly Cloudy
3:40 AM 6.8 °F -4.8 °F 1.4 °F 79% 30.11 in 10.0 mi WNW 6.9 mph - N/A   Mostly Cloudy
3:51 AM 7.0 °F 0.1 °F -0.0 °F 73% 30.19 in 10.0 mi Variable 3.5 mph - N/A   Overcast
4:51 AM 6.1 °F -2.8 °F -0.0 °F 76% 30.20 in 10.0 mi NNW 4.6 mph - N/A   Mostly Cloudy
5:51 AM 5.0 °F - -0.0 °F 80% 30.20 in 10.0 mi Calm Calm - N/A   Clear
6:51 AM 3.9 °F - -0.0 °F 84% 30.20 in 10.0 mi Calm Calm - N/A   Clear
7:51 AM 5.0 °F - 1.0 °F 84% 30.20 in 10.0 mi Calm Calm - N/A   Clear
8:51 AM 8.1 °F - 3.0 °F 80% 30.21 in 10.0 mi Calm Calm - N/A   Clear
9:51 AM 12.9 °F 5.2 °F 3.9 °F 67% 30.19 in 10.0 mi SSW 4.6 mph - N/A   Overcast
10:51 AM 15.1 °F 4.2 °F 3.0 °F 59% 30.17 in 10.0 mi SSW 8.1 mph - N/A   Mostly Cloudy
11:51 AM 16.0 °F 2.3 °F 3.9 °F 59% 30.13 in 10.0 mi South 12.7 mph - N/A   Overcast
12:51 PM 18.0 °F 7.7 °F 3.9 °F 54% 30.10 in 10.0 mi South 8.1 mph - N/A   Overcast
1:51 PM 18.0 °F 6.1 °F 7.0 °F 62% 30.08 in 10.0 mi South 10.4 mph - N/A   Overcast
2:51 PM 19.0 °F 6.8 °F 5.0 °F 54% 30.08 in 10.0 mi SW 11.5 mph 19.6 mph N/A   Overcast
3:51 PM 18.0 °F 6.9 °F 7.0 °F 62% 30.08 in 10.0 mi South 9.2 mph - N/A   Overcast
4:51 PM 17.1 °F 10.0 °F 10.0 °F 74% 30.08 in 3.0 mi South 4.6 mph - 0.00 in Snow Light Snow
4:59 PM 17.6 °F 10.7 °F 10.4 °F 73% 30.00 in 2.5 mi South 4.6 mph - 0.00 in Snow Light Snow
5:08 PM 15.8 °F 10.2 °F 10.4 °F 79% 30.00 in 5.0 mi SSW 3.5 mph - 0.00 in Snow Light Snow
5:51 PM 17.1 °F 11.7 °F 10.9 °F 77% 30.08 in 10.0 mi SSE 3.5 mph - 0.00 in   Overcast
6:51 PM 16.0 °F 5.3 °F 12.0 °F 84% 30.09 in 4.0 mi SSE 8.1 mph - 0.00 in Snow Light Snow
7:23 PM 15.8 °F 8.6 °F 12.2 °F 86% 30.00 in 2.5 mi South 4.6 mph - 0.00 in Snow Light Snow
7:48 PM 15.8 °F - 12.2 °F 86% 30.00 in 1.2 mi Calm Calm - 0.00 in Snow Light Snow
7:51 PM 15.8 °F - 12.2 °F 86% 30.00 in 1.2 mi Calm Calm - N/A Snow Light Snow
8:03 PM 15.8 °F - 12.2 °F 86% 30.00 in 1.0 mi Calm Calm - 0.00 in Snow Light Snow
8:12 PM 15.8 °F - 12.2 °F 86% 30.00 in 1.2 mi Calm Calm - 0.00 in Snow Light Snow
8:23 PM 15.8 °F 10.2 °F 12.2 °F 86% 30.00 in 1.8 mi South 3.5 mph - 0.00 in Snow Light Snow
8:30 PM 15.8 °F 10.2 °F 12.2 °F 86% 30.00 in 2.0 mi South 3.5 mph - 0.00 in Snow Light Snow
8:51 PM 15.8 °F - 12.2 °F 86% 30.00 in 2.5 mi Calm Calm - N/A Snow Light Snow
9:12 PM 15.8 °F - 14.0 °F 93% 30.00 in 3.0 mi Calm Calm - 0.00 in Snow Light Snow
9:24 PM 15.8 °F - 12.2 °F 86% 30.00 in 2.5 mi Calm Calm - 0.01 in Snow Light Snow
9:51 PM 16.0 °F - 12.9 °F 88% 30.07 in 2.5 mi Calm Calm - 0.01 in Snow Light Snow
9:58 PM 15.8 °F - 12.2 °F 86% 30.00 in 2.0 mi Calm Calm - 0.00 in Snow Light Snow
10:12 PM 15.8 °F - 12.2 °F 86% 30.00 in 2.5 mi Calm Calm - 0.00 in Snow Light Snow
10:21 PM 15.8 °F - 12.2 °F 86% 30.00 in 3.0 mi Calm Calm - 0.00 in Snow Light Snow
10:51 PM 12.9 °F - 12.0 °F 96% 30.07 in 7.0 mi Calm Calm - 0.00 in   Overcast
11:51 PM 10.0 °F - 8.1 °F 92% 30.08 in 10.0 mi Calm Calm - N/A   Clear